Weather Service Report


930 
ASUS46 KSTO 051009
RWRCA 

NORTHERN AND CENTRAL CA REGIONAL WEATHER ROUNDUP
NATIONAL WEATHER SERVICE SACRAMENTO CA 
300 AM PDT SAT SEP 05 2015

NOTE: FAIR INDICATES FEW OR NO CLOUDS BELOW 12,000 FEET WITH NO
SIGNIFICANT WEATHER AND/OR OBSTRUCTIONS TO VISIBILITY.

CAZ001-003-051100-
NORTHWEST AREA
  
CITY           SKY/WX    TMP DP  RH WIND       PRES   REMARKS
CRESCENT CITY  FAIR      50  47  89 NE3       30.06R                  
ARCATA         NOT AVBL                                               
SHELTER COVE   NOT AVBL                                               
UKIAH          FAIR      50  42  74 SE3       29.95R                  
$$

CAZ006-505>513-051100-
BAY AREA
  
CITY           SKY/WX    TMP DP  RH WIND       PRES   REMARKS
SANTA ROSA     FAIR      57  45  64 N6        29.89R                  
SAN RAFAEL     N/A       59  MM  MM MISG
NAPA           FAIR      52  47  83 CALM      29.90R                  
CONCORD        FAIR      58  51  78 S13       29.90R                  
OAKLAND CITY   N/A       60  MM  MM MISG
OAKLAND        FAIR      57  50  77 NE6       29.91S                  
SAN FRAN CITY  N/A       57  MM  78 MISG
SAN FRAN ARPT  FAIR      55  49  80 W3        29.91S                  
LIVERMORE      FAIR      57  48  72 CALM      29.90S                  
HAYWARD        FAIR      55  50  83 NE6       29.91S                  
REDWOOD CITY   N/A       MM  MM  MM MISG
MOFFETT ARPT   FAIR      55  47  74 SE5       29.91F                  
SAN JOSE ARPT  FAIR      56  47  71 SE7       29.91F                  
$$
CAZ034-037-514>518-051100-
CENTRAL COAST
  
CITY           SKY/WX    TMP DP  RH WIND       PRES   REMARKS
WATSONVILLE    FAIR      54  49  83 NW5       29.93S                  
SALINAS        FAIR      58  51  78 W6        29.93S                  
MONTEREY       CLOUDY    59  52  77 SW7       29.94F                  
PT PIEDRAS BLS NOT AVBL                                               
SAN LUIS OBISP FAIR      52  48  86 CALM      29.91R                  
SANTA MARIA    FAIR      55  51  86 E3        29.90F                  
$$
CAZ015-016-051100-
NORTHERN SACRAMENTO VALLEY
  
CITY           SKY/WX    TMP DP  RH WIND       PRES   REMARKS
REDDING        FAIR      64  38  38 N10       29.93R                  
RED BLUFF      FAIR      63  37  38 NW12      29.93R                  
OROVILLE       FAIR      60  45  57 SE7       29.90R                  
$$
CAZ016>018-051100-
SOUTHERN SACRAMENTO VALLEY
  
CITY           SKY/WX    TMP DP  RH WIND       PRES   REMARKS
AUBURN         FAIR      54  34  47 E5        29.91R                  
BEALE AFB      FAIR      55  42  61 NW6       29.88R                  
LINCOLN        FAIR      52  43  71 CALM      29.88R                  
MARYSVILLE     FAIR      56  47  71 W6        29.89R                  
SAC INTL ARPT  FAIR      54  47  77 NW6       29.88R                  
MATHER AIRPORT CLEAR     50  45  81 SE6       29.85                   
DOWNTOWN SAC   N/A       59  MM  MM MISG
SAC EXEC ARPT  FAIR      58  49  72 SE3       29.88R                  
VACAVILLE      FAIR      55  45  68 CALM      29.89R                  
TRAVIS AFB     FAIR      57  47  68 SW13      29.87R                  
$$
CAZ019>021-051100-
SAN JOAQUIN VALLEY
  
CITY           SKY/WX    TMP DP  RH WIND       PRES   REMARKS
STOCKTON       FAIR      56  45  66 NW5       29.88S                  
MODESTO        FAIR      58  46  64 CALM      29.88R                  
MERCED         FAIR      56  43  61 CALM      29.87S                  
LEMOORE        FAIR      59  43  55 N9        29.87S                  
FRESNO         FAIR      60  45  57 NW6       29.87S                  
HANFORD        FAIR      63  43  48 NW12G20   29.86S                  
PORTERVILLE    FAIR      63  43  48 W7        29.88R                  
BAKERSFIELD    FAIR      65  42  43 NW8       29.88R                  
$$
CAZ011-012-071-051100-
NORTHERN MOUNTAINS
  
CITY           SKY/WX    TMP DP  RH WIND       PRES   REMARKS
YREKA          FAIR      42  30  62 NE8       30.06R                  
MOUNT SHASTA   FAIR      44  35  70 CALM      30.03R                  
ALTURAS        CLOUDY    38  36  92 CALM      30.03R                  
$$
CAZ011-012-071-051100-
SIERRA NEVADA MTNS
  
CITY           SKY/WX    TMP DP  RH WIND       PRES   REMARKS
BLUE CANYON    FAIR      49  23  36 SE3       30.02R                  
TRUCKEE        FAIR      28  14  54 CALM      30.04R                  
TAHOE VLY ARPT FAIR      35  14  42 CALM      30.02S                  
MAMMOTH LAKES  FAIR      41  28  60 CALM      30.05S                  
$$
  

Return to Home page


Western Regional Climate Center, wrcc@dri.edu